Location: Claremont
(33.9858°S, 18.4575°E)
Time: 11:13:04
(UTC+00:00)

Nadezhda 3 Rocket - Pass Details

Date: 03 March 2021
Orbit: 957 x 999 km, 82.9° (Epoch: 10 April)

Event Time Altitude Azimuth Distance (km) Brightness Sun altitude
Rises 17:51:12 0° 13° (NNE) 3,695 6.8 -7.2°
Reaches altitude 10° 17:53:49 10° 19° (NNE) 2,749 6.1 -7.8°
Maximum altitude 17:59:47 45° 90° (E) 1,318 4.3 -9.0°
Drops below altitude 10° 18:05:44 10° 160° (SSE) 2,753 6.3 -10.2°
Sets 18:08:21 0° 166° (SSE) 3,701 7.1 -10.7°
